« Back
NWS Peachtree City, Ga » Text Product » GA Regional Weather Roundup


Printer-friendly Version
Current Version              Previous Versions:   1  2  3  4  5  6  7  8  9  

Regional Weather Roundup

787
ASUS42 KFFC 021103
RWRGA
WEATHER ROUNDUP FOR GEORGIA
NATIONAL WEATHER SERVICE PEACHTREE CITY GA
700 AM EDT TUE SEP 02 2014

NOTE: "FAIR" INDICATES FEW OR NO CLOUDS BELOW 12,000 FEET WITH NO
SIGNIFICANT WEATHER AND/OR OBSTRUCTIONS TO VISIBILITY.

* = USE WITH CAUTION. THE STATIONS MARKED WITH AN ASTERISK MAY NOT
REPORT WEATHER SUCH AS PRECIPITATION, FOG, OR THUNDER AND ARE NOT
QUALITY CONTROLLED BY NWS.

THE REMARK "TC" DENOTES TEMPERATURE READING IN DEGREES CELSIUS.

GAZ001>058-021200-
NORTH GEORGIA

CITY           SKY/WX    TMP DP  RH WIND       PRES   REMARKS
ATLANTA        PTCLDY    72  69  90 NW3       30.11R
ATHENS         PTCLDY    71  69  93 CALM      30.11R
CHAMBLEE       CLEAR     70  68  93 CALM      30.11R
PEACHTREE CITY CLEAR     69  68  96 CALM      30.11R
ROME           CLEAR     69  68  96 CALM      30.09R
WEST ATLANTA   CLEAR     70  68  93 CALM      30.10S
GAINESVILLE    PTCLDY    72  70  93 CALM      30.14S
CARTERSVILLE   CLEAR     68  66  93 CALM      30.11R


CITY           SKY/WX    TMP DP  RH WIND       PRES   REMARKS
DALTON*        CLEAR     70  70 100 CALM      30.10S
LAWRENCEVILLE* CLEAR     72  64  78 CALM      30.11
MARIETTA       MOCLDY    71  70  95 CALM      30.11S
KENNESAW*      PTCLDY    70  68  94 CALM      30.12
$$

GAZ059>098-102>109-021200-
CENTRAL GEORGIA

CITY           SKY/WX    TMP DP  RH WIND       PRES   REMARKS
AUGUSTA-BUSH   MOCLDY    73  72  96 CALM      30.07R FOG
AUGUSTA-DANIEL MOCLDY    76  71  85 CALM      30.09R
COLUMBUS       CLEAR     74  70  87 CALM      30.08R
MACON          MOCLDY    72  72 100 CALM      30.10R
ROBINS AFB     CLOUDY    73  72  96 CALM      30.09R


CITY           SKY/WX    TMP DP  RH WIND       PRES   REMARKS
LAGRANGE*      CLEAR     72  72  98 CALM      30.10R
SYLVANIA*      CLEAR     73  72  98 CALM      30.08R FOG
$$

GAZ099>101-110>166-021200-
SOUTH GEORGIA

CITY           SKY/WX    TMP DP  RH WIND       PRES   REMARKS
SAVANNAH       PTCLDY    78  74  87 CALM      30.08R
VALDOSTA       PTCLDY    72  70  93 CALM      30.09R
ALMA           PTCLDY    73  72  96 CALM      30.08R
ST SIMONS      MOCLDY    79  75  87 SW6       30.08R
FT STEWART     CLEAR     73  72  95 CALM      30.08R
ALBANY         MOCLDY    73  72  96 S5        30.11R
HUNTER AFB     CLEAR     75  74  99 CALM      30.06R
MOODY AFB      PTCLDY    73  71  96 N2        30.09R
BRUNSWICK      MOCLDY    77  73  88 CALM      30.09R


CITY           SKY/WX    TMP DP  RH WIND       PRES   REMARKS
BAINBRIDGE*    PTCLDY    75  73  94 SE3       30.10R
MOULTRIE*      MOCLDY    73  72  94 CALM      30.10R
VIDALIA*         N/A     73  73 100 CALM      30.09R
WAYCROSS*      PTCLDY    77  76  98 CALM      30.08R
DOUGLAS*       MOCLDY    73  72  94 CALM      30.10R
$$



USA.gov is the U.S. government's official web portal to all federal, state and local government web resources and services.